Time,TemperatureF,DewpointF,PressureIn,WindDirection,WindDirectionDegrees,WindSpeedMPH,WindSpeedGustMPH,Humidity,HourlyPrecipIn,Conditions,Clouds,dailyrainin,SolarRadiationWatts/m^2,SoftwareType,DateUTC
2013-05-11 00:13:00,54.6,48.0,30.04,NW,317,0.0,0.0,77,0.00,,,0.00,0,weatherlink.com 1.10,2013-05-11 05:13:00,
2013-05-11 00:28:00,53.7,47.0,30.04,NW,317,0.0,0.0,78,0.00,,,0.00,0,weatherlink.com 1.10,2013-05-11 05:28:00,
2013-05-11 00:43:00,52.9,47.0,30.04,NW,317,0.0,0.0,79,0.00,,,0.00,0,weatherlink.com 1.10,2013-05-11 05:43:00,
2013-05-11 00:58:00,52.1,46.0,30.04,NW,317,0.0,0.0,80,0.00,,,0.00,0,weatherlink.com 1.10,2013-05-11 05:58:00,
2013-05-11 01:13:00,51.3,46.0,30.04,NW,317,0.0,0.0,82,0.00,,,0.00,0,weatherlink.com 1.10,2013-05-11 06:13:00,
2013-05-11 01:29:00,50.6,46.0,30.04,NW,317,0.0,1.0,84,0.00,,,0.00,0,weatherlink.com 1.10,2013-05-11 06:29:00,
2013-05-11 01:44:00,50.0,46.0,30.05,NW,317,0.0,1.0,86,0.00,,,0.00,0,weatherlink.com 1.10,2013-05-11 06:44:00,
2013-05-11 01:59:00,49.7,46.0,30.04,NW,317,0.0,0.0,86,0.00,,,0.00,0,weatherlink.com 1.10,2013-05-11 06:59:00,
2013-05-11 02:14:00,49.3,45.0,30.04,NW,317,1.0,1.0,86,0.00,,,0.00,0,weatherlink.com 1.10,2013-05-11 07:14:00,
2013-05-11 02:29:00,48.9,45.0,30.04,NW,317,0.0,0.0,87,0.00,,,0.00,0,weatherlink.com 1.10,2013-05-11 07:29:00,
2013-05-11 02:44:00,48.6,45.0,30.04,NW,317,0.0,2.0,87,0.00,,,0.00,0,weatherlink.com 1.10,2013-05-11 07:44:00,
2013-05-11 02:59:00,48.8,46.0,30.04,NW,317,0.0,1.0,89,0.00,,,0.00,0,weatherlink.com 1.10,2013-05-11 07:59:00,
2013-05-11 03:14:00,48.7,46.0,30.04,NW,317,0.0,0.0,89,0.00,,,0.00,0,weatherlink.com 1.10,2013-05-11 08:14:00,
2013-05-11 03:29:00,48.4,45.0,30.05,NW,317,0.0,1.0,89,0.00,,,0.00,0,weatherlink.com 1.10,2013-05-11 08:29:00,
2013-05-11 03:44:00,48.7,46.0,30.05,NW,317,0.0,1.0,90,0.00,,,0.00,0,weatherlink.com 1.10,2013-05-11 08:44:00,
2013-05-11 03:59:00,48.7,46.0,30.05,NW,317,0.0,0.0,90,0.00,,,0.00,0,weatherlink.com 1.10,2013-05-11 08:59:00,
2013-05-11 04:14:00,48.6,46.0,30.05,NW,317,0.0,1.0,91,0.00,,,0.00,0,weatherlink.com 1.10,2013-05-11 09:14:00,
2013-05-11 04:29:00,48.8,46.0,30.04,NW,317,0.0,2.0,91,0.00,,,0.00,0,weatherlink.com 1.10,2013-05-11 09:29:00,
2013-05-11 04:44:00,48.7,46.0,30.04,NW,317,0.0,2.0,91,0.00,,,0.00,0,weatherlink.com 1.10,2013-05-11 09:44:00,
2013-05-11 04:59:00,48.7,46.0,30.04,NW,317,0.0,1.0,91,0.00,,,0.00,0,weatherlink.com 1.10,2013-05-11 09:59:00,
2013-05-11 05:14:00,48.4,46.0,30.04,NW,317,0.0,2.0,92,0.00,,,0.00,0,weatherlink.com 1.10,2013-05-11 10:14:00,
2013-05-11 05:29:00,48.3,46.0,30.05,NW,317,0.0,3.0,92,0.00,,,0.00,0,weatherlink.com 1.10,2013-05-11 10:29:00,
2013-05-11 05:44:00,48.2,46.0,30.05,NW,317,0.0,1.0,92,0.00,,,0.00,0,weatherlink.com 1.10,2013-05-11 10:44:00,
2013-05-11 05:59:00,48.2,46.0,30.05,NW,317,0.0,0.0,92,0.00,,,0.00,0,weatherlink.com 1.10,2013-05-11 10:59:00,
2013-05-11 06:14:00,47.9,46.0,30.05,NW,317,0.0,0.0,92,0.00,,,0.00,5,weatherlink.com 1.10,2013-05-11 11:14:00,
2013-05-11 06:29:00,47.5,45.0,30.06,NW,317,0.0,0.0,91,0.00,,,0.00,14,weatherlink.com 1.10,2013-05-11 11:29:00,
2013-05-11 06:44:00,47.5,45.0,30.05,NW,317,0.0,0.0,92,0.00,,,0.00,33,weatherlink.com 1.10,2013-05-11 11:44:00,
2013-05-11 06:59:00,49.4,48.0,30.06,NW,317,1.0,2.0,93,0.00,,,0.00,60,weatherlink.com 1.10,2013-05-11 11:59:00,
2013-05-11 07:14:00,50.8,49.0,30.06,NW,317,0.0,1.0,93,0.00,,,0.00,95,weatherlink.com 1.10,2013-05-11 12:14:00,
2013-05-11 07:29:00,52.1,50.0,30.08,NW,315,2.0,4.0,92,0.00,,,0.00,128,weatherlink.com 1.10,2013-05-11 12:29:00,
2013-05-11 07:44:00,52.8,50.0,30.09,NW,321,3.0,3.0,91,0.00,,,0.00,174,weatherlink.com 1.10,2013-05-11 12:44:00,
2013-05-11 07:59:00,54.2,51.0,30.09,WNW,296,6.0,8.0,88,0.00,,,0.00,213,weatherlink.com 1.10,2013-05-11 12:59:00,
2013-05-11 08:14:00,56.6,50.0,30.10,ENE,67,3.0,10.0,79,0.00,,,0.00,265,weatherlink.com 1.10,2013-05-11 13:14:00,
2013-05-11 08:29:00,58.1,48.0,30.11,NNE,20,5.0,10.0,70,0.00,,,0.00,322,weatherlink.com 1.10,2013-05-11 13:29:00,
2013-05-11 08:45:00,58.9,46.0,30.11,WNW,303,4.0,16.0,62,0.00,,,0.00,373,weatherlink.com 1.10,2013-05-11 13:45:00,
2013-05-11 09:00:00,59.4,44.0,30.13,NE,40,5.0,14.0,57,0.00,,,0.00,422,weatherlink.com 1.10,2013-05-11 14:00:00,
2013-05-11 09:15:00,59.3,40.0,30.14,WNW,292,11.0,17.0,50,0.00,,,0.00,468,weatherlink.com 1.10,2013-05-11 14:15:00,
2013-05-11 09:30:00,59.8,41.0,30.14,ENE,65,4.0,16.0,51,0.00,,,0.00,519,weatherlink.com 1.10,2013-05-11 14:30:00,
2013-05-11 09:45:00,60.2,39.0,30.15,North,355,7.0,14.0,46,0.00,,,0.00,563,weatherlink.com 1.10,2013-05-11 14:45:00,
2013-05-11 10:00:00,60.5,38.0,30.15,NE,46,11.0,16.0,44,0.00,,,0.00,610,weatherlink.com 1.10,2013-05-11 15:00:00,
2013-05-11 10:15:00,60.6,37.0,30.16,NE,40,9.0,14.0,42,0.00,,,0.00,649,weatherlink.com 1.10,2013-05-11 15:15:00,
2013-05-11 10:30:00,61.6,37.0,30.17,East,101,2.0,16.0,40,0.00,,,0.00,696,weatherlink.com 1.10,2013-05-11 15:30:00,
2013-05-11 10:45:00,61.6,36.0,30.18,ENE,72,5.0,13.0,38,0.00,,,0.00,731,weatherlink.com 1.10,2013-05-11 15:45:00,
2013-05-11 11:00:00,62.4,36.0,30.18,WNW,294,13.0,15.0,38,0.00,,,0.00,770,weatherlink.com 1.10,2013-05-11 16:00:00,
2013-05-11 11:15:00,62.4,36.0,30.18,NE,54,3.0,12.0,38,0.00,,,0.00,800,weatherlink.com 1.10,2013-05-11 16:15:00,
2013-05-11 11:30:00,63.4,39.0,30.18,NNE,16,4.0,11.0,40,0.00,,,0.00,831,weatherlink.com 1.10,2013-05-11 16:30:00,
2013-05-11 11:45:00,63.4,39.0,30.19,NNE,29,4.0,14.0,40,0.00,,,0.00,853,weatherlink.com 1.10,2013-05-11 16:45:00,
2013-05-11 12:00:00,64.2,36.0,30.19,NE,47,9.0,15.0,35,0.00,,,0.00,875,weatherlink.com 1.10,2013-05-11 17:00:00,
2013-05-11 12:15:00,63.6,37.0,30.19,ENE,65,4.0,14.0,38,0.00,,,0.00,893,weatherlink.com 1.10,2013-05-11 17:15:00,
2013-05-11 12:30:00,64.0,39.0,30.19,NW,320,1.0,16.0,40,0.00,,,0.00,909,weatherlink.com 1.10,2013-05-11 17:30:00,
2013-05-11 12:46:00,64.3,37.0,30.19,NW,323,11.0,14.0,37,0.00,,,0.00,921,weatherlink.com 1.10,2013-05-11 17:46:00,
2013-05-11 13:01:00,64.7,42.0,30.18,NW,307,1.0,13.0,43,0.00,,,0.00,932,weatherlink.com 1.10,2013-05-11 18:01:00,
2013-05-11 13:16:00,65.1,37.0,30.18,NNW,335,5.0,15.0,35,0.00,,,0.00,939,weatherlink.com 1.10,2013-05-11 18:16:00,
2013-05-11 13:31:00,65.1,37.0,30.18,North,360,7.0,17.0,35,0.00,,,0.00,946,weatherlink.com 1.10,2013-05-11 18:31:00,
2013-05-11 13:46:00,65.1,34.0,30.18,WNW,294,10.0,17.0,32,0.00,,,0.00,940,weatherlink.com 1.10,2013-05-11 18:46:00,
2013-05-11 14:01:00,65.2,35.0,30.18,NW,307,5.0,15.0,33,0.00,,,0.00,937,weatherlink.com 1.10,2013-05-11 19:01:00,
2013-05-11 14:16:00,65.1,35.0,30.19,West,277,3.0,17.0,33,0.00,,,0.00,928,weatherlink.com 1.10,2013-05-11 19:16:00,
2013-05-11 14:31:00,65.0,36.0,30.19,WNW,289,6.0,21.0,34,0.00,,,0.00,916,weatherlink.com 1.10,2013-05-11 19:31:00,
2013-05-11 14:46:00,65.8,37.0,30.19,NE,40,4.0,14.0,34,0.00,,,0.00,898,weatherlink.com 1.10,2013-05-11 19:46:00,
2013-05-11 15:01:00,65.5,37.0,30.19,WNW,298,8.0,13.0,35,0.00,,,0.00,877,weatherlink.com 1.10,2013-05-11 20:01:00,
2013-05-11 15:16:00,65.8,33.0,30.19,NNE,17,7.0,14.0,30,0.00,,,0.00,854,weatherlink.com 1.10,2013-05-11 20:16:00,
2013-05-11 15:31:00,65.7,33.0,30.18,NNW,329,8.0,12.0,30,0.00,,,0.00,828,weatherlink.com 1.10,2013-05-11 20:31:00,
2013-05-11 15:46:00,66.5,35.0,30.18,South,169,3.0,11.0,31,0.00,,,0.00,802,weatherlink.com 1.10,2013-05-11 20:46:00,
2013-05-11 16:01:00,66.1,34.0,30.18,NNE,26,4.0,14.0,31,0.00,,,0.00,766,weatherlink.com 1.10,2013-05-11 21:01:00,
2013-05-11 16:16:00,66.5,36.0,30.17,NW,325,8.0,9.0,33,0.00,,,0.00,731,weatherlink.com 1.10,2013-05-11 21:16:00,
2013-05-11 16:31:00,66.4,35.0,30.17,WNW,299,1.0,8.0,31,0.00,,,0.00,691,weatherlink.com 1.10,2013-05-11 21:31:00,
2013-05-11 16:46:00,66.1,34.0,30.17,ENE,63,2.0,15.0,30,0.00,,,0.00,650,weatherlink.com 1.10,2013-05-11 21:46:00,
2013-05-11 17:01:00,66.4,35.0,30.16,NW,304,8.0,13.0,31,0.00,,,0.00,613,weatherlink.com 1.10,2013-05-11 22:01:00,
2013-05-11 17:16:00,66.5,35.0,30.17,NW,319,4.0,12.0,31,0.00,,,0.00,570,weatherlink.com 1.10,2013-05-11 22:16:00,
2013-05-11 17:31:00,66.3,34.0,30.17,West,259,10.0,14.0,30,0.00,,,0.00,524,weatherlink.com 1.10,2013-05-11 22:31:00,
2013-05-11 17:46:00,65.7,33.0,30.17,NW,306,2.0,14.0,30,0.00,,,0.00,475,weatherlink.com 1.10,2013-05-11 22:46:00,
2013-05-11 18:01:00,65.6,33.0,30.17,NNW,329,7.0,10.0,30,0.00,,,0.00,425,weatherlink.com 1.10,2013-05-11 23:01:00,
2013-05-11 18:16:00,65.0,32.0,30.17,WNW,286,3.0,13.0,29,0.00,,,0.00,380,weatherlink.com 1.10,2013-05-11 23:16:00,
2013-05-11 18:31:00,64.5,32.0,30.17,East,100,1.0,15.0,30,0.00,,,0.00,325,weatherlink.com 1.10,2013-05-11 23:31:00,
2013-05-11 18:46:00,63.8,31.0,30.17,SW,221,1.0,12.0,29,0.00,,,0.00,279,weatherlink.com 1.10,2013-05-11 23:46:00,
2013-05-11 19:01:00,63.1,30.0,30.17,WNW,303,4.0,10.0,29,0.00,,,0.00,227,weatherlink.com 1.10,2013-05-12 00:01:00,
2013-05-11 19:16:00,62.4,30.0,30.18,WNW,287,5.0,12.0,29,0.00,,,0.00,174,weatherlink.com 1.10,2013-05-12 00:16:00,
2013-05-11 19:31:00,61.7,29.0,30.18,West,277,1.0,10.0,29,0.00,,,0.00,114,weatherlink.com 1.10,2013-05-12 00:31:00,
2013-05-11 19:46:00,60.9,28.0,30.18,WNW,298,3.0,8.0,29,0.00,,,0.00,67,weatherlink.com 1.10,2013-05-12 00:46:00,
2013-05-11 20:01:00,60.0,28.0,30.18,NW,326,2.0,9.0,30,0.00,,,0.00,19,weatherlink.com 1.10,2013-05-12 01:01:00,
2013-05-11 20:16:00,59.0,28.0,30.19,NW,309,3.0,8.0,31,0.00,,,0.00,9,weatherlink.com 1.10,2013-05-12 01:16:00,
2013-05-11 20:31:00,58.0,29.0,30.19,WNW,292,2.0,5.0,33,0.00,,,0.00,0,weatherlink.com 1.10,2013-05-12 01:31:00,
2013-05-11 20:46:00,57.0,29.0,30.20,WNW,296,2.0,6.0,34,0.00,,,0.00,0,weatherlink.com 1.10,2013-05-12 01:46:00,
2013-05-11 21:01:00,56.0,29.0,30.20,NW,322,0.0,4.0,35,0.00,,,0.00,0,weatherlink.com 1.10,2013-05-12 02:01:00,
2013-05-11 21:16:00,55.3,29.0,30.21,NW,322,0.0,6.0,36,0.00,,,0.00,0,weatherlink.com 1.10,2013-05-12 02:16:00,
2013-05-11 21:31:00,54.4,29.0,30.22,NW,322,0.0,4.0,38,0.00,,,0.00,0,weatherlink.com 1.10,2013-05-12 02:31:00,
2013-05-11 21:46:00,53.5,29.0,30.22,North,5,1.0,6.0,39,0.00,,,0.00,0,weatherlink.com 1.10,2013-05-12 02:46:00,
2013-05-11 22:01:00,52.8,29.0,30.23,NNW,347,1.0,4.0,40,0.00,,,0.00,0,weatherlink.com 1.10,2013-05-12 03:01:00,
2013-05-11 22:16:00,52.2,29.0,30.23,NNW,347,1.0,3.0,41,0.00,,,0.00,0,weatherlink.com 1.10,2013-05-12 03:16:00,
2013-05-11 22:31:00,51.8,29.0,30.24,NNW,347,1.0,3.0,41,0.00,,,0.00,0,weatherlink.com 1.10,2013-05-12 03:31:00,
2013-05-11 22:46:00,51.3,29.0,30.24,NNW,347,0.0,3.0,42,0.00,,,0.00,0,weatherlink.com 1.10,2013-05-12 03:46:00,
2013-05-11 23:01:00,50.6,29.0,30.24,NNW,347,0.0,2.0,43,0.00,,,0.00,0,weatherlink.com 1.10,2013-05-12 04:01:00,
2013-05-11 23:16:00,50.1,28.0,30.24,NNW,347,0.0,2.0,43,0.00,,,0.00,0,weatherlink.com 1.10,2013-05-12 04:16:00,
2013-05-11 23:31:00,49.7,28.0,30.24,NNW,347,0.0,3.0,44,0.00,,,0.00,0,weatherlink.com 1.10,2013-05-12 04:31:00,
2013-05-11 23:46:00,49.2,29.0,30.24,NNW,347,0.0,2.0,45,0.00,,,0.00,0,weatherlink.com 1.10,2013-05-12 04:46:00,